Wetbulb
66.83 62.83 56.93 54.70 46.52 45.40 41.52 44.99 49.86 51.50 52.80 57.15 57.65 53.98 55.43 56.01 55.17 49.15 59.72 67.01 67.59 67.51 70.86 72.77 73.72 73.42 72.91 72.60 72.33 71.79 71.29 70.80 70.48 69.71 68.48 67.79 67.48 67.19 67.00 66.63 66.33 66.20 66.27 66.25 66.17 66.07 66.17 66.15 66.23
60.30 59.41 54.88 52.10 42.47 39.03 40.93 47.96 48.76 52.82 57.22 59.17 56.25 55.28 55.31 55.73 60.01 61.34 62.27 67.62 67.95 68.82 70.86 71.35 73.75 73.30 73.05 72.55 72.18 71.64 71.22 71.05 70.72 70.14 68.79 67.95 67.79 67.50 67.24 66.94 66.65 66.68 66.82 66.74 66.82 67.00 67.16 67.10 66.87
61.03 59.86 50.28 48.14 43.33 39.96 42.00 49.02 53.01 56.02 57.74 57.49 56.67 57.23 57.74 58.15 62.89 62.63 64.49 67.97 67.43 68.54 70.40 70.53 73.67 73.15 73.15 72.75 72.26 71.69 71.32 71.12 70.95 69.80 69.07 68.37 68.18 68.22 68.08 67.51 67.41 67.56 67.64 67.62 67.96 68.42 68.42 68.55 68.63
57.39 55.10 50.75 44.76 43.52 47.39 46.92 50.97 53.08 54.33 56.36 58.79 58.16 55.37 57.82 62.80 62.97 63.94 68.34 67.90 67.04 67.76 69.41 71.11 73.62 73.25 73.23 73.03 72.66 72.06 71.52 71.39 71.05 70.38 69.92 69.07 68.44 68.92 68.56 67.69 67.70 68.03 68.35 68.61 68.67 69.28 69.56 69.57 69.49
55.27 50.43 43.60 41.96 44.62 49.18 52.20 53.65 53.06 52.74 55.55 57.34 58.02 54.98 56.45 61.54 65.26 68.00 67.64 67.94 65.89 66.64 67.87 69.68 73.32 73.10 73.35 73.03 72.56 72.16 71.69 71.37 71.37 71.17 70.58 70.03 70.02 69.71 68.95 68.33 68.43 68.55 69.06 69.52 69.64 69.89 70.24 70.12 70.26
49.25 48.69 40.89 40.15 44.65 49.76 52.04 53.12 52.68 55.42 56.51 57.97 56.61 55.29 56.27 60.93 65.39 67.31 67.79 66.65 66.41 66.04 66.52 67.66 73.15 73.15 73.17 73.18 72.65 72.09 71.62 71.49 71.44 71.40 71.19 70.95 70.65 70.19 69.16 68.98 69.00 69.27 69.41 69.73 70.04 70.52 70.48 70.09 69.41
47.78 44.31 41.27 42.48 45.26 47.68 51.67 52.93 51.86 51.73 55.10 56.30 57.47 55.25 55.24 58.69 63.49 67.87 67.57 66.34 65.59 65.56 65.32 66.18 70.04 71.57 73.50 73.00 72.63 72.13 71.66 71.35 71.35 71.59 71.37 71.25 71.08 70.95 70.46 70.07 69.56 69.38 69.86 70.19 70.70 70.80 70.46 70.22 69.04
50.83 46.10 41.57 43.29 44.21 45.76 52.45 52.31 53.07 53.23 54.25 58.68 59.91 54.87 53.13 57.81 61.86 66.70 66.31 64.92 64.43 64.34 64.02 64.72 68.01 69.31 69.94 70.25 72.82 72.25 71.86 71.79 71.49 71.71 71.66 71.46 71.44 71.56 71.51 70.83 70.92 69.76 70.06 70.53 70.95 71.22 70.76 70.09 69.11
52.73 42.36 39.85 43.39 44.78 47.45 51.36 50.05 55.22 56.30 55.31 56.92 57.48 57.44 59.19 60.37 60.93 60.86 59.49 59.84 62.36 65.68 63.82 63.76 66.16 67.37 68.45 68.54 69.94 72.30 72.16 72.16 71.78 71.72 71.80 70.62 68.73 68.92 68.99 70.29 70.41 70.34 70.44 71.22 71.17 71.14 70.94 69.99 68.56
50.96 43.93 44.33 48.49 49.79 48.13 50.84 49.69 51.90 52.90 53.52 53.62 56.10 59.02 60.19 61.23 58.85 58.58 57.80 60.76 59.72 64.11 64.87 65.39 65.77 65.49 66.55 67.57 67.14 69.30 69.15 68.93 69.29 69.05 68.73 68.77 67.47 66.99 68.66 69.34 70.51 70.22 70.81 71.63 71.91 71.79 70.80 69.11 64.83
51.36 48.30 51.61 51.63 52.21 53.66 53.26 51.72 53.10 52.45 50.61 53.37 54.70 56.83 57.87 58.65 58.14 57.94 58.90 59.26 61.13 63.17 65.11 66.27 66.32 65.87 65.08 66.16 66.69 68.03 68.41 68.06 68.29 67.69 67.16 67.56 67.31 66.97 67.84 66.24 66.93 67.31 70.29 68.50 69.66 69.83 67.96 65.10 63.68
47.48 52.47 54.51 54.99 56.44 54.99 53.00 55.16 52.70 52.58 52.95 56.46 57.42 58.03 57.34 57.27 56.44 56.80 57.40 57.41 55.94 56.92 62.48 66.18 66.96 66.26 65.38 65.34 65.99 66.36 67.63 67.29 66.94 67.24 66.71 66.70 66.16 65.27 65.35 65.14 64.12 64.42 66.20 67.42 66.49 65.36 64.56 63.97 63.87
47.56 50.20 51.90 54.65 55.49 55.41 55.37 53.30 53.13 53.23 56.15 58.04 58.48 57.82 56.68 56.05 56.22 56.70 56.67 57.40 56.51 54.38 56.86 63.78 66.83 66.64 66.44 65.27 65.50 65.88 66.93 66.62 66.07 66.53 66.82 66.35 65.74 64.26 64.31 63.45 63.70 64.24 64.31 65.16 63.98 63.26 62.93 62.56 62.70
44.58 45.69 48.46 49.99 49.57 50.95 51.27 51.99 53.31 54.51 57.10 56.19 56.21 55.68 54.90 54.87 55.65 55.41 55.63 55.76 55.77 56.46 55.62 60.98 66.14 66.76 66.85 66.35 65.83 65.78 66.08 66.37 66.04 66.31 66.80 66.46 65.61 64.10 63.72 63.58 63.32 62.66 63.24 63.45 63.26 62.67 61.49 61.39 62.12
43.98 40.75 44.08 45.13 45.57 46.27 50.49 47.52 49.00 53.76 55.09 54.08 54.04 54.50 54.55 54.56 55.10 54.72 55.31 55.30 55.96 56.73 56.86 56.92 65.15 66.26 66.37 66.41 66.21 66.13 66.28 66.44 65.91 66.08 66.64 66.69 65.48 64.32 63.79 63.30 61.80 62.56 62.46 62.16 62.03 62.82 61.84 61.68 60.33
41.31 39.86 37.83 44.46 46.22 47.27 48.16 42.67 49.95 53.34 53.89 53.61 53.91 54.25 54.00 54.27 54.89 55.27 55.88 55.67 56.06 55.48 55.46 55.70 62.98 65.88 66.03 66.31 66.39 66.21 66.59 66.74 66.17 66.06 66.46 66.48 65.97 65.54 63.69 63.66 62.98 62.57 61.60 61.21 61.17 61.88 62.00 60.40 59.29
38.26 36.66 37.65 41.64 46.77 47.02 46.72 43.84 50.08 52.05 51.97 51.42 51.96 52.25 53.28 54.45 54.25 55.18 56.35 56.73 55.84 56.05 55.61 55.96 58.96 64.01 65.97 65.96 65.74 65.39 66.17 66.53 66.53 66.02 65.83 66.02 66.15 66.22 64.38 63.36 62.78 62.18 61.30 60.67 60.39 59.67 59.64 58.51 59.15
34.11 35.34 38.53 39.08 44.29 46.40 45.25 44.75 48.59 50.83 50.41 50.05 50.67 51.56 52.38 53.18 54.11 55.97 57.09 57.06 56.26 55.53 55.82 55.85 56.66 60.63 63.36 63.48 63.71 64.46 65.14 64.89 65.58 65.86 66.48 66.57 66.57 65.48 64.37 64.02 62.18 61.81 60.83 60.11 59.41 59.30 59.15 59.69 60.03
38.13 36.46 36.40 40.91 45.19 44.87 44.23 44.12 46.46 48.84 49.27 49.61 50.55 51.16 51.81 52.62 54.25 55.44 55.76 56.18 54.96 54.89 54.51 56.08 57.78 61.73 63.75 64.36 64.36 62.87 63.94 63.31 62.77 65.16 66.51 66.17 65.92 64.97 63.89 62.65 61.86 61.47 60.79 60.60 59.74 59.49 59.23 59.88 59.59
36.85 34.84 34.60 39.53 42.93 41.40 41.16 41.87 44.88 46.72 48.17 48.27 49.04 50.40 50.93 51.47 52.71 54.29 54.48 53.55 54.79 56.48 57.03 57.60 59.31 63.66 64.42 64.81 62.66 62.45 62.00 61.05 62.32 64.13 65.45 65.57 65.50 65.26 64.24 61.79 61.30 60.87 60.35 59.78 59.37 60.82 59.23 56.54 57.32
35.32 34.63 35.64 35.88 40.39 41.55 39.62 37.95 40.52 44.04 45.63 47.98 49.73 50.33 50.26 50.44 51.30 52.36 52.55 52.99 54.83 56.58 58.39 59.95 62.45 63.95 64.02 63.56 62.31 60.74 60.91 60.22 60.15 60.45 61.46 63.30 64.73 64.75 63.58 62.21 61.54 60.91 60.10 59.43 59.48 60.23 57.06 54.81 54.85
31.04 38.80 39.09 38.38 35.44 30.94 38.86 30.03 38.10 41.63 42.87 44.85 45.54 47.55 47.36 48.76 51.13 50.86 52.04 51.68 55.09 57.19 61.43 63.10 64.18 64.77 64.56 63.81 61.96 62.16 59.65 58.95 58.51 59.35 60.31 61.95 63.25 63.02 63.16 62.46 61.59 60.73 59.87 58.83 58.23 58.67 56.92 55.38 53.59
33.75 38.72 38.00 37.76 35.20 32.02 34.07 29.94 36.74 40.41 39.86 42.59 45.29 46.94 47.17 49.55 49.74 49.57 50.31 51.57 55.53 60.72 61.79 63.54 64.54 64.30 63.66 62.78 62.73 60.90 59.19 58.71 58.97 59.47 60.12 60.11 61.19 62.29 62.76 62.48 62.07 59.72 59.15 58.62 58.46 57.80 56.92 56.40 55.02
38.66 35.83 35.82 35.89 32.11 25.49 33.28 32.08 34.13 37.32 40.34 42.81 44.44 45.58 47.69 47.74 48.70 49.20 51.30 52.68 58.78 61.17 63.13 63.74 64.18 62.20 62.61 62.23 60.99 60.24 59.65 58.47 58.82 58.70 58.93 59.29 59.75 60.41 61.58 61.77 60.41 59.72 58.86 58.48 58.36 57.94 57.42 56.76 56.16
34.13 27.76 21.82 21.73 22.63 25.32 35.07 32.20 35.95 39.07 41.56 42.67 43.35 44.47 46.30 47.35 47.01 49.58 55.51 57.52 59.74 61.89 62.38 62.78 63.20 60.75 61.25 60.79 60.18 60.00 59.17 59.27 59.25 58.89 58.69 58.74 58.69 58.99 60.04 60.37 59.30 58.86 58.98 58.82 58.58 57.90 57.52 56.98 56.40
30.31 29.16 22.62 20.06 21.98 25.44 35.77 29.85 35.52 42.71 45.23 46.07 45.99 45.36 46.03 46.28 46.59 48.87 56.08 58.51 61.05 62.23 62.07 62.13 62.21 59.97 59.92 59.99 58.83 59.24 59.49 59.60 59.08 58.87 59.04 59.22 59.20 59.28 59.93 59.61 59.63 59.70 59.86 59.41 59.16 58.33 58.14 57.60 58.00
32.57 27.20 32.07 26.54 28.23 24.55 29.76 35.89 41.04 43.97 44.09 45.16 44.36 44.88 44.73 45.79 50.93 55.12 58.20 60.77 61.93 61.88 61.00 60.91 60.85 59.90 59.93 59.74 59.48 59.67 59.95 59.72 59.13 59.16 59.47 59.40 59.05 59.91 59.85 59.68 58.99 59.62 59.74 59.93 58.86 58.33 58.68 58.96 58.28
35.02 37.37 26.76 24.09 20.93 20.67 27.48 30.22 33.15 38.36 41.05 44.01 43.37 43.32 44.49 51.58 54.93 57.16 59.77 60.61 61.05 61.06 60.12 60.48 60.68 60.12 59.90 59.73 60.29 60.41 59.98 60.02 59.83 59.45 59.01 59.33 59.12 59.03 59.08 59.24 59.14 59.46 59.84 59.72 58.63 57.96 59.71 60.15 58.44
31.06 30.28 31.02 28.61 26.90 22.69 22.60 27.51 38.18 39.70 41.82 42.13 43.29 45.73 45.35 53.36 55.64 58.40 60.08 60.20 60.70 60.62 60.21 60.24 59.95 59.63 59.30 59.79 59.68 59.61 59.73 59.98 59.41 58.89 59.37 59.27 58.68 59.36 59.41 59.88 60.11 59.93 59.47 59.32 58.56 58.80 58.87 58.19 57.59
34.51 32.33 31.54 24.71 25.88 27.11 26.53 29.00 41.97 41.25 41.10 42.31 45.15 47.73 51.16 55.50 57.19 59.18 59.70 59.88 60.30 60.04 59.75 59.95 59.57 59.74 59.34 59.56 59.30 59.43 59.89 59.49 58.99 58.87 59.30 59.58 59.19 58.91 60.02 60.94 60.78 60.82 60.65 59.02 58.61 58.79 60.11 58.99 58.74
MSLP
1010.83 1011.01 1011.14 1011.09 1012.21 1012.38 1011.47 1009.29 1007.40 1006.14 1005.16 1004.04 1003.30 1003.89 1004.12 1003.95 1004.72 1005.21 1003.85 1004.28 1004.87 1005.61 1006.57 1007.17 1007.69 1008.22 1008.39 1008.56 1008.82 1009.04 1009.21 1009.45 1009.68 1009.98 1010.16 1010.42 1010.81 1011.24 1011.57 1011.91 1012.16 1012.27 1012.36 1012.48 1012.58 1012.75 1012.82 1013.06 1013.18
1010.65 1011.02 1011.19 1011.33 1011.83 1012.07 1010.40 1007.72 1006.36 1005.15 1004.16 1003.53 1002.93 1002.95 1003.62 1003.91 1003.86 1003.75 1004.01 1004.41 1004.88 1005.50 1006.37 1006.89 1007.21 1007.77 1007.90 1008.24 1008.54 1008.72 1008.98 1009.20 1009.44 1009.76 1009.92 1010.20 1010.71 1011.09 1011.49 1011.86 1012.23 1012.41 1012.52 1012.56 1012.66 1012.70 1012.85 1012.94 1013.05
1010.49 1010.66 1011.30 1011.29 1011.30 1011.02 1009.11 1006.71 1005.43 1004.42 1003.73 1003.64 1002.83 1002.51 1002.96 1003.30 1003.38 1003.41 1003.62 1004.25 1005.11 1005.62 1006.15 1006.62 1006.88 1007.24 1007.49 1007.78 1008.07 1008.25 1008.57 1008.97 1009.30 1009.60 1009.88 1010.17 1010.59 1010.99 1011.42 1011.75 1012.13 1012.30 1012.41 1012.60 1012.73 1012.80 1012.80 1012.92 1012.93
1010.48 1010.93 1011.40 1011.01 1010.26 1009.47 1007.78 1006.23 1005.22 1004.28 1003.31 1002.88 1002.43 1002.68 1002.55 1002.35 1002.92 1003.03 1003.74 1004.38 1004.89 1005.46 1005.83 1006.15 1006.50 1006.90 1007.15 1007.45 1007.79 1008.06 1008.32 1008.69 1009.02 1009.27 1009.67 1010.15 1010.58 1010.88 1011.25 1011.53 1011.89 1012.19 1012.21 1012.35 1012.56 1012.67 1012.74 1012.82 1012.85
1010.53 1011.13 1011.55 1010.83 1009.51 1008.35 1007.18 1005.97 1005.26 1004.29 1003.51 1002.91 1002.45 1002.85 1002.71 1002.52 1002.56 1003.15 1003.62 1004.20 1004.52 1005.23 1005.59 1005.82 1006.26 1006.80 1007.30 1007.50 1007.67 1007.86 1008.04 1008.46 1008.94 1009.19 1009.51 1009.91 1010.45 1010.76 1011.10 1011.40 1011.65 1011.97 1012.16 1012.26 1012.40 1012.54 1012.60 1012.79 1012.85
1010.84 1011.35 1011.62 1010.44 1009.01 1007.51 1006.69 1005.50 1004.90 1004.09 1003.28 1002.80 1002.24 1002.48 1002.85 1002.46 1002.78 1003.20 1003.74 1004.05 1004.25 1004.62 1005.43 1005.65 1006.01 1006.45 1006.93 1006.99 1007.34 1007.61 1007.90 1008.29 1008.83 1009.23 1009.47 1009.81 1010.32 1010.67 1010.92 1011.26 1011.56 1011.75 1012.13 1012.12 1012.22 1012.44 1012.52 1012.70 1012.88
1010.60 1011.49 1010.88 1010.04 1008.58 1007.44 1006.01 1004.71 1004.35 1003.55 1002.96 1002.78 1002.30 1002.29 1002.89 1002.83 1002.36 1002.74 1003.28 1004.04 1004.40 1005.09 1005.48 1005.60 1005.78 1006.16 1006.50 1006.65 1007.05 1007.55 1007.75 1008.17 1008.55 1009.08 1009.51 1009.74 1010.04 1010.43 1010.85 1011.11 1011.45 1011.69 1011.91 1011.98 1012.11 1012.32 1012.43 1012.61 1012.82
1010.30 1011.12 1010.63 1009.46 1008.29 1007.19 1005.43 1004.50 1003.50 1003.25 1002.84 1002.78 1001.58 1002.06 1002.65 1002.54 1002.94 1003.66 1004.20 1004.58 1004.86 1005.13 1005.26 1005.27 1005.48 1005.79 1006.13 1006.19 1006.59 1007.09 1007.63 1008.04 1008.35 1008.71 1009.18 1009.46 1009.71 1010.03 1010.36 1010.88 1011.17 1011.44 1011.66 1011.73 1011.86 1012.06 1012.24 1012.44 1012.59
1009.94 1010.79 1010.18 1008.75 1007.84 1006.64 1005.29 1004.17 1002.97 1003.14 1003.23 1002.92 1002.63 1001.74 1001.66 1002.12 1002.70 1003.61 1004.32 1004.71 1004.99 1005.38 1005.36 1005.71 1005.90 1005.63 1005.58 1005.96 1006.27 1006.81 1007.23 1007.82 1008.16 1008.36 1008.80 1009.14 1009.40 1009.73 1009.99 1010.38 1010.89 1011.19 1011.31 1011.56 1011.58 1011.81 1011.96 1012.21 1012.35
1009.74 1009.81 1008.56 1006.95 1006.62 1006.32 1005.57 1005.50 1004.62 1004.02 1003.35 1003.08 1003.13 1002.27 1002.23 1002.36 1002.85 1003.37 1003.95 1004.03 1004.46 1004.58 1004.73 1004.74 1005.16 1005.22 1005.59 1005.77 1006.19 1006.46 1006.94 1007.34 1007.70 1007.90 1008.30 1008.88 1009.22 1009.41 1009.69 1010.08 1010.39 1010.90 1010.98 1011.24 1011.38 1011.59 1011.71 1011.92 1012.21
1009.09 1008.22 1007.33 1006.05 1005.95 1006.23 1005.82 1005.13 1005.08 1004.65 1003.38 1003.23 1003.27 1002.86 1003.09 1002.85 1002.73 1003.25 1003.28 1003.24 1003.15 1002.97 1003.75 1004.05 1004.28 1004.62 1005.06 1005.43 1005.80 1006.08 1006.47 1006.74 1007.13 1007.44 1007.78 1008.37 1009.09 1009.29 1009.41 1009.84 1010.16 1010.59 1010.67 1010.89 1010.91 1011.16 1011.42 1011.75 1012.03
1008.18 1007.49 1007.04 1006.02 1006.01 1006.08 1005.67 1005.30 1005.03 1004.79 1003.63 1002.88 1003.37 1003.07 1002.97 1002.48 1002.93 1002.97 1002.68 1002.51 1002.71 1002.71 1002.70 1002.80 1003.48 1003.97 1004.21 1004.85 1005.18 1005.37 1005.70 1006.03 1006.47 1006.71 1007.18 1007.90 1008.74 1009.12 1009.39 1009.68 1009.91 1010.35 1010.42 1010.53 1010.76 1011.14 1011.27 1011.52 1011.65
1007.43 1007.14 1006.95 1006.60 1006.00 1005.68 1005.87 1004.90 1004.43 1003.92 1003.75 1003.16 1002.86 1002.61 1002.28 1002.51 1002.37 1001.95 1002.19 1001.90 1001.93 1002.28 1002.07 1002.21 1002.60 1002.97 1003.47 1004.19 1004.59 1004.71 1004.73 1005.19 1005.63 1006.31 1006.67 1007.12 1007.91 1008.67 1009.08 1009.33 1009.62 1009.90 1010.11 1010.29 1010.54 1010.86 1011.13 1011.36 1011.32
1006.77 1006.82 1006.72 1006.59 1005.93 1005.68 1005.55 1004.38 1003.94 1003.10 1003.00 1002.83 1002.49 1002.19 1002.11 1002.08 1001.84 1001.64 1001.46 1001.21 1001.41 1001.26 1001.31 1001.20 1001.70 1001.93 1002.69 1002.98 1003.22 1003.44 1004.09 1004.58 1005.19 1005.71 1005.95 1006.55 1007.29 1007.97 1008.54 1008.91 1009.33 1009.70 1009.66 1009.83 1010.07 1010.42 1010.61 1010.92 1011.09
1006.95 1007.08 1006.66 1006.06 1006.13 1005.48 1005.21 1003.54 1002.31 1002.79 1002.59 1002.08 1001.99 1001.83 1001.56 1001.27 1001.17 1001.15 1000.81 1000.78 1000.77 1000.43 1000.33 1000.81 1000.83 1001.36 1001.83 1002.02 1002.54 1003.00 1003.26 1003.99 1004.49 1005.15 1005.53 1006.12 1006.72 1007.61 1008.16 1008.50 1009.07 1009.26 1009.24 1009.61 1009.90 1010.11 1010.40 1010.77 1010.88
1007.42 1007.15 1006.55 1005.22 1005.63 1005.29 1005.60 1000.23 1001.82 1002.07 1002.23 1001.55 1001.37 1001.10 1000.94 1000.53 1000.34 1000.06 1000.01 1000.00 999.77 999.88 999.89 999.66 1000.10 1000.57 1000.97 1001.44 1001.80 1002.42 1002.94 1003.40 1004.04 1004.63 1005.04 1005.61 1006.20 1006.75 1007.48 1008.09 1008.55 1008.80 1009.18 1009.53 1009.78 1010.00 1010.21 1010.44 1010.83
1007.49 1006.41 1005.69 1005.72 1004.76 1004.95 1004.84 999.64 1001.86 1001.92 1001.97 1001.38 1001.11 1000.74 1000.38 1000.08 999.79 999.47 999.40 999.25 999.11 998.98 999.03 999.18 999.59 999.64 999.97 1000.69 1001.37 1002.14 1002.32 1002.96 1003.71 1004.30 1004.85 1005.22 1005.62 1006.24 1006.93 1007.66 1008.43 1008.56 1009.05 1009.32 1009.51 1009.89 1010.05 1010.48 1010.60
1007.08 1006.61 1006.32 1005.61 1005.06 1004.66 1003.72 1000.92 1001.99 1001.95 1001.90 1001.26 1000.96 1000.46 1000.10 999.78 999.27 998.99 998.76 998.41 998.43 998.46 998.47 998.57 999.00 999.18 999.82 1000.63 1001.29 1001.94 1002.43 1002.85 1003.27 1003.94 1004.49 1004.97 1005.41 1005.81 1006.65 1007.56 1008.17 1008.63 1008.72 1009.14 1009.52 1009.75 1009.93 1010.14 1010.34
1007.07 1007.01 1006.84 1005.99 1005.15 1004.68 1003.48 1001.64 1001.79 1001.87 1001.59 1001.03 1000.38 1000.03 999.63 999.19 999.07 998.65 998.39 998.07 998.28 998.03 998.09 998.14 998.51 998.77 999.59 1000.68 1001.47 1002.11 1002.28 1002.87 1003.33 1003.77 1004.23 1004.62 1005.10 1005.61 1006.34 1007.06 1007.69 1008.00 1008.44 1008.66 1009.08 1009.56 1009.90 1010.04 1010.29
1007.48 1007.49 1007.15 1006.57 1005.71 1005.11 1004.03 1002.49 1001.92 1001.69 1000.97 1000.37 999.76 999.34 999.18 999.08 998.83 998.26 998.01 997.91 997.82 997.44 997.33 997.69 997.83 998.49 999.12 999.92 1000.61 1001.25 1001.85 1002.75 1003.07 1003.45 1003.91 1004.22 1004.77 1005.31 1005.85 1006.51 1007.20 1007.72 1008.26 1008.62 1008.99 1009.36 1009.73 1009.93 1010.09
1007.33 1007.40 1007.31 1007.09 1006.43 1005.47 1005.01 1002.48 1001.76 1000.71 1000.29 999.70 998.90 998.57 998.56 998.68 998.46 997.92 997.68 997.51 997.29 997.18 997.23 997.21 997.77 998.37 999.12 999.90 1000.44 1001.37 1002.10 1002.65 1003.28 1003.69 1003.96 1004.27 1004.64 1005.13 1005.48 1006.14 1006.92 1007.54 1008.01 1008.36 1008.71 1009.04 1009.45 1009.72 1009.96
1007.12 1007.39 1007.28 1007.17 1007.20 1006.49 1005.75 1002.51 1001.75 1000.02 999.39 999.07 998.86 997.96 997.97 997.98 997.65 997.57 997.45 997.29 996.81 996.71 997.31 997.97 998.14 998.60 999.03 999.29 1000.03 1000.87 1002.04 1002.75 1003.03 1003.42 1003.82 1004.31 1004.82 1005.33 1005.68 1006.29 1006.90 1007.43 1007.77 1008.20 1008.45 1008.66 1008.93 1009.30 1009.86
1006.75 1007.00 1007.13 1007.38 1007.40 1007.15 1006.29 1005.46 997.82 999.12 998.24 997.65 997.68 997.51 997.49 996.96 996.95 996.91 996.74 996.83 996.70 997.07 997.69 998.27 998.37 998.86 999.10 999.44 1000.12 1001.05 1002.08 1002.60 1003.04 1003.72 1004.22 1004.72 1005.16 1005.43 1006.00 1006.48 1006.89 1007.29 1007.61 1007.86 1008.04 1008.34 1008.73 1009.07 1009.46
1006.57 1006.76 1007.02 1007.50 1007.74 1007.10 1006.04 1005.76 997.57 998.21 997.07 996.55 996.69 996.83 996.55 996.47 996.56 996.42 996.36 996.34 996.74 997.03 997.70 998.31 998.50 999.27 999.45 999.82 1000.36 1001.11 1001.96 1002.76 1003.35 1003.94 1004.52 1005.06 1005.36 1005.73 1006.11 1006.48 1006.86 1007.10 1007.37 1007.61 1007.82 1008.09 1008.43 1008.79 1009.09
1006.61 1007.23 1007.71 1008.23 1007.89 1005.92 1004.92 1004.74 997.89 997.25 996.62 996.54 996.40 996.25 996.19 996.00 996.19 996.19 996.36 996.66 997.08 997.40 997.85 998.24 998.98 999.66 999.87 1000.15 1000.79 1001.48 1002.08 1002.64 1003.14 1003.82 1004.52 1005.14 1005.53 1005.93 1006.17 1006.41 1006.71 1006.98 1007.12 1007.30 1007.59 1007.85 1008.12 1008.38 1008.77
1006.30 1007.09 1007.20 1007.21 1006.97 1005.87 1004.67 1001.51 998.24 996.69 995.68 995.22 995.47 995.70 995.75 995.75 995.78 995.89 996.19 996.74 997.25 997.57 998.05 998.65 999.30 999.84 1000.13 1000.59 1001.31 1001.91 1002.45 1002.76 1003.27 1003.88 1004.52 1004.89 1005.27 1005.61 1005.86 1006.17 1006.50 1006.68 1006.80 1007.12 1007.40 1007.57 1007.81 1007.97 1008.21
1005.85 1006.49 1006.62 1007.13 1006.73 1006.19 1003.28 999.85 997.84 996.39 995.86 995.12 995.23 995.51 995.63 995.44 995.62 995.99 996.47 996.92 997.30 997.79 998.38 998.89 999.32 1000.03 1000.51 1001.08 1001.70 1002.31 1002.65 1003.03 1003.65 1004.14 1004.38 1004.77 1005.12 1005.53 1005.80 1006.05 1006.35 1006.54 1006.85 1007.05 1007.28 1007.49 1007.60 1007.75 1007.88
1005.29 1005.76 1006.70 1007.25 1006.88 1005.69 1002.45 1000.36 997.23 996.17 996.19 995.15 995.41 995.72 995.62 995.55 995.94 996.37 996.76 997.18 997.66 998.23 998.85 999.19 999.45 1000.12 1000.84 1001.40 1001.98 1002.57 1002.92 1003.31 1003.71 1004.08 1004.59 1004.88 1005.27 1005.43 1005.70 1006.00 1006.24 1006.58 1006.70 1006.92 1007.13 1007.31 1007.36 1007.43 1007.63
1006.01 1005.86 1006.28 1006.47 1006.37 1005.01 1002.77 998.93 996.83 996.70 996.03 996.16 995.76 995.38 995.19 995.29 995.97 996.44 997.01 997.59 997.94 998.65 999.20 999.62 999.91 1000.47 1001.16 1001.66 1002.26 1002.73 1003.27 1003.57 1003.87 1004.28 1004.57 1004.91 1005.16 1005.40 1005.67 1005.97 1006.27 1006.49 1006.62 1006.83 1006.95 1007.09 1007.16 1007.33 1007.47
1006.68 1006.45 1006.53 1006.73 1006.22 1004.80 1003.34 998.62 996.41 996.42 996.55 996.50 995.76 995.28 994.62 994.91 995.89 996.58 997.31 997.84 998.16 998.87 999.45 999.77 1000.25 1000.75 1001.21 1001.80 1002.35 1002.89 1003.31 1003.69 1004.05 1004.36 1004.57 1004.84 1005.14 1005.46 1005.71 1006.02 1006.24 1006.42 1006.57 1006.73 1006.87 1006.95 1006.91 1007.01 1007.20
Wind_Speed
7 4 1 2 4 5 4 8 3 4 2 4 5 4 11 8 9 8 3 11 11 15 15 19 21 21 20 19 18 18 17 17 17 17 18 17 16 15 14 11 10 9 9 8 7 6 5 3 2
4 3 2 2 5 3 6 6 7 5 3 6 4 1 2 2 2 3 5 8 9 15 14 16 23 22 22 20 19 19 19 18 19 18 18 18 17 15 14 13 12 10 9 8 7 6 5 4 4
4 1 3 4 4 6 6 5 1 4 4 5 5 1 6 4 2 7 1 12 13 14 14 15 24 23 23 22 21 21 20 19 19 19 18 18 17 16 15 14 13 11 10 8 7 6 6 6 5
3 2 3 3 8 7 5 3 6 10 9 5 1 4 1 4 6 7 12 14 14 13 15 19 24 23 23 23 22 21 21 20 20 20 19 18 17 16 15 15 13 12 10 9 8 7 7 7 7
2 3 2 3 6 4 4 8 8 11 5 3 3 1 0 6 5 10 14 14 16 14 14 16 24 22 21 21 22 21 22 21 20 19 19 18 17 16 16 15 14 13 11 10 9 8 8 6 8
3 3 0 6 7 1 5 6 5 6 2 5 3 8 4 3 7 8 10 12 12 16 14 13 21 22 22 22 22 21 21 21 20 19 19 18 17 16 16 15 14 13 12 11 10 10 7 7 7
5 3 5 4 3 4 4 3 4 4 3 7 1 7 3 4 6 10 12 7 6 7 10 11 14 18 22 21 21 21 21 21 20 18 18 18 17 16 15 14 13 12 12 11 11 10 8 8 9
4 4 3 5 3 5 5 3 4 6 3 7 8 3 4 5 2 6 4 2 2 5 9 13 12 14 14 14 22 22 21 20 20 19 19 18 18 17 16 13 12 13 12 12 11 11 9 9 9
5 2 6 7 8 5 5 10 3 3 2 7 8 5 6 9 10 7 3 1 3 5 6 6 10 13 14 13 14 19 22 20 20 19 19 16 9 10 12 12 14 14 13 13 12 12 10 10 10
5 6 10 8 10 4 5 2 14 7 4 4 9 7 7 4 6 9 9 13 10 12 10 12 12 14 12 9 9 12 10 10 11 11 11 9 7 7 9 11 16 16 15 13 12 13 12 11 3
7 11 17 12 10 6 8 7 4 11 11 8 6 13 6 10 7 9 13 12 17 20 9 15 15 13 12 12 8 6 6 7 8 11 9 8 6 6 6 4 4 4 10 4 8 8 4 5 3
6 11 15 13 10 3 13 8 11 13 16 10 13 9 8 11 9 11 11 11 10 11 15 15 17 13 14 9 8 10 9 9 8 10 11 8 6 6 6 4 4 4 4 5 5 3 4 5 5
16 8 6 11 13 12 11 19 18 17 15 18 16 10 10 11 12 9 11 9 9 6 10 14 14 15 13 12 9 10 11 10 10 8 10 10 9 7 6 4 4 6 4 5 4 4 4 5 6
2 6 18 14 14 8 12 20 16 16 15 15 15 15 11 11 11 8 9 10 8 9 10 12 14 16 14 15 16 12 10 9 9 8 10 12 8 7 7 6 6 4 5 5 5 6 5 5 4
5 9 10 11 5 8 4 24 28 21 19 19 15 13 12 11 10 12 10 9 11 10 11 11 16 13 16 18 14 10 9 9 9 8 9 12 10 9 8 5 4 6 5 5 4 4 4 4 3
4 5 16 14 14 6 8 35 7 8 14 22 17 14 9 12 11 9 10 10 11 10 10 8 9 13 14 14 11 9 8 8 8 8 8 12 12 10 7 6 5 4 4 4 4 4 3 3 4
5 15 15 11 6 8 17 31 12 10 11 16 13 11 12 15 12 10 12 13 12 13 11 10 10 14 16 10 7 7 8 8 7 7 7 11 12 10 7 5 4 5 4 4 4 3 3 3 4
11 15 4 4 4 10 18 31 19 14 11 17 16 16 16 17 19 17 21 16 11 10 9 8 8 9 8 5 5 4 5 4 6 7 7 11 8 9 8 6 5 5 4 3 3 4 3 3 3
7 4 2 2 8 13 19 26 21 16 18 22 22 20 20 21 14 15 14 13 9 9 8 9 9 7 9 5 6 4 6 5 4 5 8 9 8 9 7 5 5 5 5 6 4 1 4 3 3
10 9 8 6 11 4 10 19 14 11 14 12 15 17 15 13 14 18 15 8 11 14 10 9 9 9 7 5 3 4 5 3 3 5 7 8 9 10 7 6 6 5 4 4 4 4 2 2 4
7 11 10 7 9 16 13 21 15 13 12 14 18 16 10 11 14 15 12 11 8 9 10 8 7 8 7 8 7 5 6 4 3 3 4 4 7 6 7 6 5 5 4 4 4 5 6 4 2
15 4 8 5 5 10 5 21 20 19 22 16 10 17 10 12 14 9 11 9 9 9 5 6 7 9 9 9 8 13 6 5 3 4 3 4 5 5 5 5 5 5 3 4 4 4 4 3 4
8 12 9 12 10 3 6 6 23 12 18 20 22 19 13 19 14 13 11 10 6 6 6 6 8 7 8 8 10 7 6 3 4 4 7 5 4 6 6 6 5 5 4 4 5 4 4 3 3
4 4 9 10 3 5 10 9 30 13 19 19 14 10 16 11 11 10 9 5 5 7 7 7 10 6 7 8 8 9 9 7 6 5 5 4 3 4 5 5 5 5 4 5 4 4 5 5 4
4 3 1 1 4 13 13 12 27 8 2 6 8 10 11 11 10 7 7 7 8 9 8 8 10 8 7 8 8 8 8 8 8 7 5 6 4 2 5 5 5 4 5 5 4 5 4 5 4
7 10 6 7 5 5 14 16 13 16 21 17 11 10 9 10 9 9 7 7 8 10 9 9 10 9 8 9 8 6 7 5 5 5 5 4 4 3 5 4 5 5 5 4 5 3 4 5 4
3 5 7 3 3 2 6 16 18 20 15 16 9 8 11 11 7 6 7 9 10 10 9 11 12 10 9 10 8 7 7 8 6 6 5 4 3 3 5 5 5 5 4 4 4 4 4 4 4
6 5 4 1 5 5 7 9 13 4 11 18 11 8 10 6 6 7 9 10 9 9 7 9 12 12 9 10 8 7 7 7 6 6 6 5 5 5 5 5 4 3 4 4 5 3 4 5 3
1 2 2 4 5 5 4 8 8 12 8 6 11 14 10 10 9 10 10 9 10 9 9 8 11 12 9 9 7 8 6 6 6 6 5 6 5 5 5 4 4 3 3 3 4 5 4 4 4
4 4 3 3 8 6 2 11 9 9 7 8 15 16 10 9 10 10 11 10 11 11 10 10 9 10 8 7 7 7 6 6 6 6 6 6 6 4 4 4 3 3 3 3 4 4 4 5 5
Wind_Direction
178 183 174 60 76 70 260 260 238 271 240 234 253 158 175 178 162 208 319 161 130 143 162 167 171 177 176 175 170 166 159 157 155 156 156 154 156 157 155 158 163 165 163 160 160 162 162 177 204
168 151 30 94 105 119 254 245 227 237 247 269 93 43 61 219 262 126 103 163 139 147 161 168 174 180 178 177 174 169 166 165 165 167 165 162 164 164 165 169 175 179 179 179 181 183 198 205 215
163 202 113 150 165 182 227 236 275 300 279 278 121 157 144 210 285 154 345 134 135 156 164 172 179 182 180 180 178 174 171 173 173 172 170 170 171 171 173 179 183 186 189 196 203 211 217 230 231
168 32 6 146 224 247 217 312 303 317 310 250 132 85 180 205 164 189 134 138 148 165 171 178 181 186 183 182 182 178 176 178 180 177 175 176 178 178 182 186 189 195 198 206 219 230 245 248 248
53 64 222 242 243 237 259 274 289 292 250 254 136 201 144 321 106 132 150 158 164 174 182 180 183 187 188 187 186 184 181 183 186 182 180 179 183 184 187 191 194 199 204 212 225 240 256 272 263
74 110 102 241 243 282 259 254 264 266 274 271 158 129 204 207 141 175 165 176 178 172 183 182 186 189 192 190 191 190 187 187 189 188 184 182 185 189 191 196 200 202 211 215 224 239 246 252 260
141 124 215 253 268 317 262 273 226 287 248 258 180 135 268 246 249 158 177 167 162 178 179 181 187 196 197 196 193 195 193 192 189 190 191 188 186 191 194 201 206 212 216 221 234 245 244 241 254
143 122 241 237 188 267 249 232 187 70 320 309 143 186 237 228 99 87 69 103 167 181 187 191 190 195 201 198 198 197 198 196 193 192 195 193 192 195 192 202 209 217 221 225 234 240 245 244 244
139 115 225 228 166 229 331 353 268 356 7 340 318 150 216 148 143 129 132 194 188 229 209 201 207 202 203 201 202 199 201 200 199 198 200 196 193 195 196 197 208 220 222 230 232 232 235 242 247
170 180 224 214 212 194 298 321 295 326 14 308 308 7 345 148 153 173 185 213 210 216 208 194 203 209 204 204 198 199 198 201 203 199 197 195 190 185 186 199 210 221 228 230 232 234 231 245 219
205 215 228 246 230 252 261 280 255 295 297 219 257 300 228 261 248 214 208 214 210 217 198 203 207 203 197 200 188 191 193 198 202 199 184 185 188 194 194 182 201 212 233 217 228 228 215 215 220
250 219 230 258 247 251 254 273 249 254 258 290 270 257 264 289 224 238 235 217 205 214 217 205 208 201 199 192 195 193 195 199 201 199 181 174 183 191 191 189 196 210 210 209 203 204 201 217 235
246 239 243 248 255 251 269 264 260 252 262 277 276 270 267 262 264 258 222 256 262 213 225 214 198 202 196 192 195 200 202 202 199 191 187 182 188 187 185 187 199 215 192 203 198 193 198 218 230
139 223 244 255 266 252 259 267 263 261 262 261 266 266 250 246 247 259 279 268 263 248 229 215 204 204 188 197 199 201 200 200 192 192 191 187 184 178 185 198 219 207 200 201 191 198 198 219 210
259 290 280 237 207 242 358 268 253 250 265 267 262 256 259 248 247 240 238 241 235 247 248 193 206 194 197 202 205 200 197 189 192 191 181 184 181 191 190 198 201 219 194 197 197 199 186 210 220
222 186 243 261 227 222 164 259 236 227 237 256 262 262 256 260 256 256 245 247 257 248 239 214 200 194 195 199 198 199 191 183 185 183 177 181 185 181 176 195 205 202 194 183 183 173 192 188 204
236 238 230 263 211 207 204 262 259 260 253 261 269 264 274 279 284 278 273 265 251 241 240 236 193 190 196 195 185 195 170 176 175 171 177 182 183 181 172 170 202 192 184 181 172 186 173 186 217
222 231 277 209 227 209 229 253 252 250 267 271 270 271 269 274 274 277 272 267 260 257 243 240 190 182 170 141 128 126 150 156 157 170 176 174 173 163 159 181 170 188 156 178 178 193 198 218 231
317 345 274 336 219 217 231 255 257 255 253 255 258 262 264 265 269 266 264 263 266 254 225 209 184 174 149 149 158 154 179 155 153 161 163 161 161 157 153 161 174 168 176 195 175 136 225 240 202
259 268 272 276 269 276 277 277 284 271 253 242 245 250 251 266 271 272 268 265 246 252 217 213 201 161 160 155 120 142 136 137 149 158 162 162 159 159 167 167 183 166 180 188 193 190 224 210 182
229 231 251 246 308 298 308 285 282 256 244 250 256 256 254 239 253 265 273 258 254 241 228 193 157 132 126 118 112 83 80 76 94 105 111 142 156 169 163 171 162 181 186 197 194 197 182 182 195
256 220 257 253 205 257 188 287 273 269 263 251 244 255 250 246 251 246 257 265 231 233 133 136 128 134 138 136 126 146 139 148 148 136 122 132 145 165 158 156 176 189 163 180 190 182 178 140 170
244 233 238 225 244 235 248 293 272 226 256 248 239 247 247 249 250 249 250 245 230 149 148 140 127 128 137 129 138 132 115 102 107 106 124 124 145 148 144 169 166 160 178 177 181 175 185 174 145
237 218 229 233 150 250 218 201 278 244 242 246 237 216 236 242 246 249 256 224 181 144 134 137 125 127 127 125 123 133 135 127 114 115 118 131 124 130 159 164 168 165 165 183 191 198 188 186 186
167 85 312 168 187 231 207 197 237 272 305 235 243 248 250 258 268 251 219 183 151 143 134 128 133 124 121 114 116 125 129 140 140 138 136 143 136 154 183 166 161 168 184 189 182 196 195 191 190
181 165 183 184 179 224 248 230 239 231 256 259 263 246 253 258 247 243 202 157 147 133 130 124 133 116 113 112 107 114 129 122 115 125 140 148 165 158 166 169 171 182 191 183 196 192 196 194 203
202 169 193 15 224 242 242 260 278 275 278 278 285 282 263 255 241 189 142 143 139 133 129 136 125 117 116 117 115 112 115 118 134 145 142 150 129 146 163 163 165 192 189 193 191 207 201 202 211
160 196 88 6 217 236 254 254 237 283 250 272 278 276 273 238 160 140 138 134 122 121 120 117 126 128 126 122 124 129 127 127 134 128 142 151 145 146 146 150 178 188 203 192 202 200 201 195 206
348 184 206 169 178 221 296 259 194 202 237 282 295 298 258 202 165 148 136 131 125 119 126 124 123 125 128 125 123 125 134 138 130 136 149 149 143 150 155 170 179 186 189 208 208 203 209 189 191
249 287 136 168 233 249 246 261 307 282 335 319 308 316 301 156 143 139 135 134 132 134 138 135 129 135 139 132 127 138 140 132 142 143 156 153 155 146 146 163 158 175 168 205 217 208 187 179 190